| time (UTC) | temp F | wind direction | speed MPH | gust MPH | rain 1hr in | rain 24hr in | rain mn in | humidity % | barometer mb |
| 20260507054552 | 57 | 142 | 0.0 | 4.0 | 0.00 | 0.31 | 0.31 | 92 | 1015.6 |
| 20260507053052 | 57 | 173 | 0.0 | 1.0 | 0.00 | 0.31 | 0.31 | 93 | 1015.6 |
| 20260507051549 | 57 | 175 | 0.0 | 1.0 | 0.00 | 0.31 | 0.31 | 93 | 1015.7 |
| 20260507050103 | 57 | 174 | 0.0 | 0.0 | 0.00 | 0.31 | 0.31 | 93 | 1015.5 |
| 20260507044551 | 57 | 172 | 0.0 | 3.0 | 0.00 | 0.31 | 0.31 | 93 | 1015.3 |
| 20260507043041 | 57 | 174 | 0.0 | 0.0 | 0.00 | 0.31 | 0.31 | 93 | 1015.1 |
| 20260507041544 | 57 | 174 | 0.0 | 0.0 | 0.00 | 0.31 | 0.31 | 93 | 1015.0 |
| 20260507040038 | 57 | 174 | 0.0 | 3.0 | 0.00 | 0.31 | 0.31 | 93 | 1014.8 |
| 20260507034541 | 57 | 293 | 0.0 | 2.0 | 0.00 | 0.32 | 0.31 | 93 | 1014.7 |
| 20260507033041 | 57 | 293 | 1.0 | 6.0 | 0.00 | 0.32 | 0.31 | 94 | 1014.7 |
| 20260507031536 | 57 | 114 | 0.0 | 7.0 | 0.00 | 0.32 | 0.31 | 94 | 1014.3 |
| 20260507030037 | 57 | 124 | 3.0 | 7.0 | 0.00 | 0.32 | 0.31 | 94 | 1014.5 |
| 20260507024542 | 57 | 121 | 2.0 | 7.0 | 0.00 | 0.35 | 0.31 | 94 | 1014.5 |
| 20260507023034 | 57 | 128 | 2.0 | 7.0 | 0.00 | 0.35 | 0.31 | 93 | 1014.4 |
| 20260507021546 | 57 | 130 | 2.0 | 8.0 | 0.01 | 0.35 | 0.31 | 94 | 1014.4 |
| 20260507020032 | 57 | 123 | 1.0 | 8.0 | 0.02 | 0.35 | 0.31 | 94 | 1014.4 |
| 20260507014528 | 57 | 134 | 4.0 | 8.0 | 0.22 | 0.35 | 0.31 | 93 | 1014.4 |
| 20260507013033 | 58 | 123 | 0.0 | 0.0 | 0.25 | 0.35 | 0.31 | 93 | 1014.5 |
| 20260507011530 | 58 | 123 | 0.0 | 0.0 | 0.24 | 0.35 | 0.31 | 93 | 1014.5 |
| 20260507010034 | 58 | 130 | 2.0 | 4.0 | 0.23 | 0.33 | 0.28 | 92 | 1014.3 |
| 20260507004521 | 59 | 126 | 0.0 | 7.0 | 0.03 | 0.13 | 0.09 | 92 | 1014.3 |
| 20260507003015 | 0 | 0.0 | 0.0 | 0.00 | 0.10 | 0.06 | 1014.3 | ||
| 20260507001512 | 0 | 0.0 | 0.0 | 0.00 | 0.10 | 0.06 | 1014.3 | ||
| 20260507000006 | 0 | 0.0 | 0.0 | 0.00 | 0.10 | 0.06 | 1014.3 | ||
| 20260506234502 | 0 | 0.0 | 0.0 | 0.01 | 0.10 | 0.06 | 1014.2 | ||
| 20260506233100 | 0 | 0.0 | 0.0 | 0.06 | 0.10 | 0.06 | 1014.4 | ||
| 20260506231556 | 59 | 158 | 0.0 | 2.0 | 0.06 | 0.10 | 0.06 | 91 | 1014.4 |
| 20260506230058 | 59 | 158 | 0.0 | 5.0 | 0.06 | 0.10 | 0.06 | 91 | 1014.6 |
| 20260506224552 | 60 | 123 | 0.0 | 7.0 | 0.06 | 0.09 | 0.06 | 90 | 1014.6 |
| 20260506223057 | 60 | 136 | 0.0 | 6.0 | 0.00 | 0.04 | 0.00 | 90 | 1014.6 |
| 20260506221548 | 60 | 127 | 0.0 | 0.0 | 0.00 | 0.04 | 0.00 | 89 | 1014.6 |
| 20260506220045 | 60 | 134 | 0.0 | 8.0 | 0.00 | 0.04 | 0.00 | 88 | 1014.5 |
| 20260506214545 | 61 | 136 | 0.0 | 3.0 | 0.00 | 0.04 | 0.04 | 86 | 1014.4 |
| 20260506213044 | 61 | 190 | 0.0 | 9.0 | 0.00 | 0.04 | 0.04 | 85 | 1014.5 |
| 20260506211543 | 61 | 179 | 0.0 | 2.0 | 0.00 | 0.04 | 0.04 | 85 | 1014.5 |
| 20260506210043 | 62 | 183 | 0.0 | 0.0 | 0.00 | 0.04 | 0.04 | 84 | 1014.5 |
| 20260506204553 | 62 | 147 | 0.0 | 4.0 | 0.00 | 0.04 | 0.04 | 84 | 1014.4 |
| 20260506203042 | 61 | 138 | 1.0 | 4.0 | 0.00 | 0.04 | 0.04 | 84 | 1014.4 |
| 20260506201542 | 61 | 128 | 0.0 | 6.0 | 0.00 | 0.04 | 0.04 | 84 | 1014.2 |
| 20260506200048 | 62 | 146 | 0.0 | 6.0 | 0.00 | 0.04 | 0.04 | 83 | 1014.2 |
| 20260506194547 | 62 | 181 | 0.0 | 5.0 | 0.00 | 0.04 | 0.04 | 82 | 1014.3 |
| 20260506193040 | 62 | 184 | 1.0 | 8.0 | 0.00 | 0.04 | 0.04 | 81 | 1014.0 |
| 20260506191539 | 62 | 182 | 2.0 | 6.0 | 0.00 | 0.04 | 0.04 | 80 | 1013.9 |
| 20260506190040 | 62 | 173 | 0.0 | 7.0 | 0.00 | 0.04 | 0.04 | 80 | 1013.7 |
| 20260506184541 | 62 | 175 | 0.0 | 4.0 | 0.00 | 0.04 | 0.04 | 80 | 1013.4 |
| 20260506183045 | 62 | 155 | 0.0 | 5.0 | 0.00 | 0.04 | 0.04 | 79 | 1013.3 |
| 20260506181537 | 63 | 180 | 0.0 | 5.0 | 0.00 | 0.04 | 0.04 | 79 | 1013.3 |
| 20260506180036 | 63 | 172 | 3.0 | 10.0 | 0.00 | 0.04 | 0.04 | 79 | 1013.2 |
| 20260506174536 | 64 | 180 | 3.0 | 10.0 | 0.00 | 0.04 | 0.04 | 80 | 1013.1 |
| 20260506173136 | 64 | 184 | 1.0 | 5.0 | 0.00 | 0.04 | 0.04 | 80 | 1013.3 |
| 20260506171541 | 64 | 165 | 0.0 | 7.0 | 0.00 | 0.04 | 0.04 | 80 | 1012.9 |
| 20260506170038 | 65 | 178 | 2.0 | 10.0 | 0.00 | 0.04 | 0.04 | 79 | 1012.9 |
| 20260506164543 | 65 | 180 | 5.0 | 11.0 | 0.00 | 0.04 | 0.04 | 78 | 1012.9 |
| 20260506163032 | 66 | 155 | 4.0 | 14.0 | 0.00 | 0.04 | 0.04 | 77 | 1012.9 |
| 20260506161539 | 68 | 165 | 6.0 | 12.0 | 0.00 | 0.04 | 0.04 | 76 | 1013.0 |
| 20260506160042 | 68 | 142 | 2.0 | 7.0 | 0.00 | 0.04 | 0.04 | 73 | 1012.9 |
| 20260506154532 | 67 | 195 | 2.0 | 9.0 | 0.00 | 0.04 | 0.04 | 75 | 1013.0 |
| 20260506153029 | 68 | 165 | 4.0 | 10.0 | 0.00 | 0.04 | 0.04 | 72 | 1013.0 |
| 20260506151535 | 68 | 181 | 5.0 | 10.0 | 0.00 | 0.04 | 0.04 | 73 | 1013.0 |
| 20260506150032 | 68 | 281 | 2.0 | 7.0 | 0.00 | 0.04 | 0.04 | 74 | 1013.0 |
| 20260506144528 | 68 | 253 | 4.0 | 10.0 | 0.00 | 0.04 | 0.04 | 71 | 1013.0 |
| 20260506143041 | 66 | 190 | 3.0 | 9.0 | 0.00 | 0.04 | 0.04 | 72 | 1013.0 |
| 20260506141526 | 66 | 173 | 5.0 | 16.0 | 0.00 | 0.04 | 0.04 | 69 | 1012.9 |
| 20260506140033 | 69 | 196 | 7.0 | 15.0 | 0.00 | 0.04 | 0.04 | 66 | 1012.8 |
| 20260506134523 | 70 | 182 | 5.0 | 12.0 | 0.00 | 0.04 | 0.04 | 66 | 1013.1 |
| 20260506133025 | 70 | 119 | 5.0 | 10.0 | 0.00 | 0.04 | 0.04 | 66 | 1013.3 |
| 20260506131525 | 69 | 185 | 3.0 | 12.0 | 0.00 | 0.04 | 0.04 | 68 | 1013.6 |
| 20260506130024 | 68 | 186 | 6.0 | 13.0 | 0.00 | 0.04 | 0.04 | 68 | 1013.7 |
| 20260506124518 | 67 | 193 | 5.0 | 11.0 | 0.00 | 0.04 | 0.04 | 68 | 1013.8 |
| 20260506123018 | 67 | 153 | 4.0 | 13.0 | 0.00 | 0.04 | 0.04 | 68 | 1013.8 |
| 20260506121516 | 67 | 190 | 2.0 | 8.0 | 0.00 | 0.04 | 0.04 | 67 | 1013.7 |
| 20260506120015 | 66 | 179 | 6.0 | 11.0 | 0.00 | 0.04 | 0.04 | 65 | 1013.7 |
| 20260506114520 | 67 | 223 | 5.0 | 12.0 | 0.00 | 0.04 | 0.04 | 63 | 1013.9 |
| 20260506113014 | 69 | 181 | 8.0 | 13.0 | 0.00 | 0.04 | 0.04 | 60 | 1013.7 |
| 20260506111512 | 69 | 136 | 5.0 | 11.0 | 0.00 | 0.04 | 0.04 | 62 | 1013.9 |
| 20260506110012 | 67 | 211 | 4.0 | 12.0 | 0.00 | 0.04 | 0.04 | 62 | 1013.9 |
| 20260506104510 | 67 | 178 | 4.0 | 23.0 | 0.00 | 0.04 | 0.04 | 65 | 1013.7 |
| 20260506103014 | 68 | 186 | 3.0 | 15.0 | 0.00 | 0.04 | 0.04 | 68 | 1013.7 |
| 20260506101506 | 67 | 182 | 6.0 | 13.0 | 0.00 | 0.04 | 0.04 | 70 | 1013.9 |
| 20260506100004 | 66 | 175 | 6.0 | 13.0 | 0.00 | 0.04 | 0.04 | 72 | 1013.9 |
| 20260506094605 | 65 | 175 | 5.0 | 10.0 | 0.00 | 0.04 | 0.04 | 76 | 1014.0 |
| 20260506093105 | 64 | 146 | 5.0 | 12.0 | 0.00 | 0.04 | 0.04 | 76 | 1014.2 |
| 20260506091555 | 62 | 173 | 2.0 | 10.0 | 0.00 | 0.04 | 0.04 | 79 | 1014.2 |
| 20260506090052 | 62 | 172 | 3.0 | 9.0 | 0.00 | 0.04 | 0.04 | 79 | 1014.3 |
| 20260506084552 | 61 | 172 | 1.0 | 10.0 | 0.00 | 0.04 | 0.04 | 80 | 1014.2 |
| 20260506083049 | 61 | 172 | 1.0 | 10.0 | 0.00 | 0.04 | 0.04 | 80 | 1014.1 |
| 20260506081548 | 61 | 180 | 1.0 | 11.0 | 0.00 | 0.04 | 0.04 | 81 | 1014.2 |
| 20260506073045 | 59 | 132 | 0.0 | 2.0 | 0.00 | 0.04 | 0.04 | 84 | 1014.3 |
| 20260506071550 | 58 | 182 | 0.0 | 4.0 | 0.00 | 0.04 | 0.04 | 85 | 1014.3 |
| 20260506061538 | 57 | 180 | 0.0 | 7.0 | 0.00 | 0.06 | 0.04 | 85 | 1014.3 |